This is the latest recevied weather packets stored in our database for station/object DG9VH-13. If no packets are shown the sender has not sent any weather packets the latest 10 day(s).
| Time | Temp. | Humidity | Pressure | Rain* | Wind** | Luminosity | Snow |
|---|---|---|---|---|---|---|---|
| 1777102801 | 12.78° C | 51% | 1002.6 hPa | - | - | - | - |
| 1777102204 | 13.33° C | 51% | 1002.6 hPa | - | - | - | - |
| 1777101601 | 12.78° C | 51% | 1002.6 hPa | - | - | - | - |
| 1777101004 | 12.22° C | 51% | 1002.7 hPa | - | - | - | - |
| 1777100401 | 11.67° C | 52% | 1002.6 hPa | - | - | - | - |
| 1777099804 | 11.67° C | 52% | 1002.7 hPa | - | - | - | - |
| 1777099201 | 10.56° C | 53% | 1002.7 hPa | - | - | - | - |
| 1777098601 | 10.56° C | 53% | 1002.8 hPa | - | - | - | - |
| 1777098004 | 10° C | 54% | 1003 hPa | - | - | - | - |
| 1777097401 | 9.44° C | 54% | 1002.8 hPa | - | - | - | - |
| 1777096801 | 9.44° C | 55% | 1003 hPa | - | - | - | - |
| 1777096200 | 8.89° C | 55% | 1002.9 hPa | - | - | - | - |
| 1777095601 | 8.89° C | 55% | 1002.8 hPa | - | - | - | - |
| 1777095001 | 8.33° C | 55% | 1002.9 hPa | - | - | - | - |
| 1777094401 | 8.33° C | 55% | 1002.8 hPa | - | - | - | - |
| 1777093803 | 8.33° C | 55% | 1002.7 hPa | - | - | - | - |
| 1777093204 | 7.78° C | 56% | 1002.7 hPa | - | - | - | - |
| 1777092601 | 8.33° C | 56% | 1002.7 hPa | - | - | - | - |
| 1777092001 | 7.78° C | 55% | 1002.7 hPa | - | - | - | - |
| 1777091401 | 7.78° C | 55% | 1002.6 hPa | - | - | - | - |
| 1777090801 | 8.33° C | 55% | 1002.6 hPa | - | - | - | - |
| 1777090201 | 8.33° C | 55% | 1002.7 hPa | - | - | - | - |
| 1777089603 | 8.33° C | 55% | 1002.7 hPa | - | - | - | - |
| 1777089004 | 8.33° C | 54% | 1002.8 hPa | - | - | - | - |
| 1777088401 | 8.33° C | 55% | 1002.8 hPa | - | - | - | - |
* Rain since midnight (hover to see other rain measurements)
** Current wind speed in m/s (hover to see current wind gust speed)